• In Uzbekistan
  • List of Countries
  • For 7 days
  • Water Temperature
  • Satellite Maps
  • Weather Map
  • Weather Widgets
  • user-avatar
    Login

    Hourly Weather Ottawa

    Today, 20 February, Wednesday

    Time Temperature Precipitation Wind Pressure Humidity
    00:00 -16°C° 0 mm 2 mps 767 mmHg 90%
    01:00 -16°C° 0 mm 2 mps 767 mmHg 91%
    02:00 -17°C° 0 mm 2 mps 767 mmHg 91%
    03:00 -17°C° 0 mm 2 mps 767 mmHg 90%
    04:00 -16°C° 0 mm 1 mps 767 mmHg 90%
    05:00 -16°C° 0 mm 1 mps 767 mmHg 90%
    06:00 -17°C° 0 mm 1 mps 766 mmHg 90%
    07:00 -16°C° 0 mm 0 mps 766 mmHg 89%
    08:00 -14°C° 0 mm 0 mps 766 mmHg 87%
    09:00 -12°C° 0 mm 1 mps 766 mmHg 85%
    10:00 -10°C° 0 mm 1 mps 765 mmHg 83%
    11:00 -9°C° 0 mm 1 mps 765 mmHg 82%
    12:00 -7°C° 0 mm 1 mps 764 mmHg 81%
    13:00 -7°C° 0 mm 2 mps 763 mmHg 80%
    14:00 -6°C° 0 mm 2 mps 762 mmHg 82%
    15:00 -6°C° 0 mm 2 mps 761 mmHg 84%
    16:00 -5°C° 0 mm 2 mps 760 mmHg 87%
    17:00 -7°C° 0 mm 3 mps 759 mmHg 89%
    18:00 -8°C° 0 mm 3 mps 758 mmHg 90%
    19:00 -10°C° 0 mm 4 mps 757 mmHg 92%
    20:00 -10°C° 0.1 mm 4 mps 756 mmHg 93%
    21:00 -10°C° 0.1 mm 4 mps 755 mmHg 93%
    22:00 -10°C° 0.1 mm 4 mps 753 mmHg 94%
    23:00 -9°C° 0.8 mm 4 mps 752 mmHg 95%

    Tomorrow, 21 February, Thursday

    Time Temperature Precipitation Wind Pressure Humidity
    00:00 -8°C° 0.8 mm 4 mps 751 mmHg 96%
    01:00 -7°C° 0.8 mm 5 mps 750 mmHg 96%
    02:00 -7°C° 1.3 mm 4 mps 748 mmHg 96%
    03:00 -7°C° 1.3 mm 4 mps 747 mmHg 97%
    04:00 -7°C° 1.3 mm 4 mps 746 mmHg 97%
    05:00 -5°C° 0.2 mm 3 mps 746 mmHg 97%
    06:00 -3°C° 0.2 mm 2 mps 745 mmHg 98%
    07:00 -2°C° 0.2 mm 2 mps 745 mmHg 98%
    08:00 -1°C° 0 mm 3 mps 745 mmHg 97%
    09:00 -1°C° 0 mm 4 mps 746 mmHg 96%
    10:00 0°C° 0 mm 5 mps 746 mmHg 94%
    11:00 0°C° 0 mm 5 mps 746 mmHg 95%
    12:00 0°C° 0 mm 5 mps 747 mmHg 96%
    13:00 0°C° 0 mm 5 mps 747 mmHg 96%
    14:00 0°C° 0 mm 5 mps 748 mmHg 94%
    15:00 0°C° 0 mm 5 mps 748 mmHg 91%
    16:00 0°C° 0 mm 5 mps 749 mmHg 88%
    17:00 -1°C° 0 mm 5 mps 749 mmHg 86%
    18:00 -1°C° 0 mm 5 mps 750 mmHg 83%
    19:00 -2°C° 0 mm 4 mps 751 mmHg 81%
    20:00 -2°C° 0 mm 5 mps 752 mmHg 82%
    21:00 -4°C° 0 mm 5 mps 753 mmHg 83%
    22:00 -5°C° 0 mm 5 mps 754 mmHg 84%
    23:00 -4°C° 0 mm 4 mps 754 mmHg 85%

    Day after tomorrow, 22 February, Friday

    Time Temperature Precipitation Wind Pressure Humidity
    00:00 -5°C° 0 mm 4 mps 755 mmHg 87%
    01:00 -6°C° 0 mm 3 mps 756 mmHg 89%
    02:00 -7°C° 0 mm 3 mps 757 mmHg 90%
    03:00 -8°C° 0 mm 3 mps 757 mmHg 91%
    04:00 -7°C° 0 mm 2 mps 758 mmHg 92%
    05:00 -8°C° 0 mm 2 mps 759 mmHg 92%
    06:00 -9°C° 0 mm 2 mps 760 mmHg 92%
    07:00 -10°C° 0 mm 2 mps 760 mmHg 91%
    08:00 -8°C° 0 mm 2 mps 761 mmHg 90%
    09:00 -6°C° 0 mm 2 mps 762 mmHg 89%
    10:00 -6°C° 0 mm 3 mps 762 mmHg 87%
    11:00 -5°C° 0 mm 3 mps 762 mmHg 87%
    12:00 -4°C° 0 mm 3 mps 763 mmHg 86%
    13:00 -2°C° 0 mm 3 mps 763 mmHg 86%
    14:00 -2°C° 0 mm 3 mps 763 mmHg 85%
    15:00 -2°C° 0 mm 3 mps 763 mmHg 84%
    16:00 -2°C° 0 mm 3 mps 763 mmHg 82%
    17:00 -3°C° 0 mm 2 mps 763 mmHg 84%
    18:00 -3°C° 0 mm 1 mps 763 mmHg 85%
    19:00 -4°C° 0 mm 1 mps 764 mmHg 87%
    20:00 -4°C° 0 mm 1 mps 764 mmHg 87%
    21:00 -4°C° 0 mm 1 mps 764 mmHg 88%
    22:00 -3°C° 0 mm 1 mps 765 mmHg 88%
    23:00 -4°C° 0 mm 1 mps 765 mmHg 89%

    23 February, Saturday

    Time Temperature Precipitation Wind Pressure Humidity
    00:00 -4°C° 0 mm 1 mps 765 mmHg 90%
    01:00 -6°C° 0 mm 1 mps 765 mmHg 92%
    02:00 -6°C° 0 mm 1 mps 764 mmHg 92%
    03:00 -7°C° 0 mm 1 mps 764 mmHg 93%
    04:00 -8°C° 0 mm 0 mps 764 mmHg 94%
    05:00 -8°C° 0 mm 1 mps 764 mmHg 94%
    06:00 -8°C° 0 mm 1 mps 764 mmHg 93%
    07:00 -9°C° 0 mm 1 mps 763 mmHg 93%
    08:00 -7°C° 0 mm 1 mps 763 mmHg 92%
    09:00 -4°C° 0 mm 1 mps 763 mmHg 91%
    10:00 -2°C° 0 mm 1 mps 763 mmHg 90%
    11:00 -1°C° 0 mm 1 mps 762 mmHg 93%
    12:00 0°C° 0 mm 1 mps 761 mmHg 96%
    13:00 0°C° 0 mm 1 mps 760 mmHg 98%
    14:00 -2°C° 0 mm 2 mps 759 mmHg 97%
    15:00 -2°C° 0 mm 2 mps 758 mmHg 97%
    16:00 -2°C° 0 mm 3 mps 757 mmHg 96%
    17:00 -2°C° 0 mm 3 mps 757 mmHg 96%
    18:00 -4°C° 0 mm 3 mps 756 mmHg 96%
    19:00 -5°C° 0 mm 3 mps 756 mmHg 96%
    20:00 -4°C° 0 mm 3 mps 755 mmHg 96%
    21:00 -4°C° 0 mm 3 mps 754 mmHg 95%
    22:00 -4°C° 0 mm 4 mps 753 mmHg 95%
    23:00 -3°C° 1.1 mm 4 mps 752 mmHg 96%

    24 February, Sunday

    Time Temperature Precipitation Wind Pressure Humidity
    00:00 -3°C° 1.1 mm 4 mps 750 mmHg 96%
    01:00 -4°C° 1.1 mm 5 mps 749 mmHg 96%
    02:00 -4°C° 0.9 mm 5 mps 747 mmHg 96%
    03:00 -3°C° 0.9 mm 6 mps 746 mmHg 96%
    04:00 -3°C° 0.9 mm 6 mps 744 mmHg 96%
    05:00 -3°C° 1.3 mm 6 mps 742 mmHg 97%
    06:00 -2°C° 1.3 mm 6 mps 740 mmHg 98%
    07:00 -2°C° 1.3 mm 6 mps 738 mmHg 99%
    08:00 -2°C° 2.3 mm 6 mps 736 mmHg 99%
    09:00 -2°C° 2.3 mm 6 mps 734 mmHg 99%
    10:00 -1°C° 2.3 mm 5 mps 733 mmHg 99%
    11:00 0°C° 0.5 mm 5 mps 731 mmHg 99%
    12:00 +1°C° 0.5 mm 5 mps 730 mmHg 98%
    13:00 +3°C° 0.5 mm 4 mps 729 mmHg 98%
    14:00 +2°C° 0.1 mm 5 mps 728 mmHg 97%
    15:00 +2°C° 0.1 mm 6 mps 728 mmHg 95%
    16:00 0°C° 0.1 mm 7 mps 727 mmHg 94%
    17:00 0°C° 0.2 mm 7 mps 727 mmHg 91%
    18:00 0°C° 0.2 mm 7 mps 727 mmHg 88%
    19:00 0°C° 0.2 mm 7 mps 726 mmHg 85%
    20:00 -1°C° 0.2 mm 7 mps 726 mmHg 84%
    21:00 -1°C° 0.2 mm 6 mps 725 mmHg 83%
    22:00 -1°C° 0.2 mm 6 mps 725 mmHg 82%
    23:00 -1°C° 0.6 mm 7 mps 726 mmHg 82%

    25 February, Monday

    Time Temperature Precipitation Wind Pressure Humidity
    00:00 -1°C° 0.6 mm 8 mps 726 mmHg 82%
    01:00 -1°C° 0.6 mm 9 mps 727 mmHg 82%
    02:00 -5°C° 0.3 mm 9 mps 729 mmHg 82%
    03:00 -9°C° 0.3 mm 10 mps 731 mmHg 81%
    04:00 -13°C° 0.3 mm 11 mps 733 mmHg 81%
    05:00 -14°C° 0.1 mm 11 mps 736 mmHg 80%
    06:00 -17°C° 0.1 mm 10 mps 738 mmHg 79%
    07:00 -18°C° 0.1 mm 10 mps 741 mmHg 77%
    08:00 -20°C° 0.1 mm 10 mps 743 mmHg 78%
    09:00 -22°C° 0.1 mm 10 mps 745 mmHg 78%
    10:00 -23°C° 0.1 mm 11 mps 747 mmHg 79%
    11:00 -23°C° 0 mm 10 mps 748 mmHg 78%
    12:00 -23°C° 0 mm 10 mps 750 mmHg 78%
    13:00 -23°C° 0 mm 10 mps 751 mmHg 78%
    14:00 -22°C° 0 mm 9 mps 752 mmHg 76%
    15:00 -22°C° 0 mm 9 mps 754 mmHg 74%
    16:00 -22°C° 0 mm 8 mps 755 mmHg 72%
    17:00 -22°C° 0 mm 8 mps 756 mmHg 73%
    18:00 -23°C° 0 mm 7 mps 758 mmHg 74%
    19:00 -22°C° 0 mm 6 mps 759 mmHg 74%
    20:00 -23°C° 0 mm 6 mps 760 mmHg 76%
    21:00 -22°C° 0 mm 5 mps 761 mmHg 77%
    22:00 -24°C° 0 mm 5 mps 762 mmHg 78%
    23:00 -24°C° 0 mm 4 mps 763 mmHg 79%
    Show more